Location: Banska Bystrica
(0.0000°N, 19.1500°E)
Time: 08:59:30
(UTC+02:00)

Daily predictions for brighter satellites

Satellite Brightness Start Highest point End
(mag) Time Altitude Azimuth Time Altitude Azimuth Time Altitude Azimuth
USA 81 4.2 18:58:15 10° N 19:03:30 83° W 19:08:47 10° S
Cosmos 724 4.3 18:58:52 10° SSW 19:04:43 90° W 19:10:29 10° NNE
Stardust Del rocket 3.0 19:01:25 10° WNW 19:06:18 83° NNE 19:09:03 10° ESE
SMAP 4.4 19:02:02 10° S 19:06:27 43° WSW 19:10:51 10° NNW
Meteor 1-27 Rocket 4.2 19:01:13 10° SSE 19:06:37 40° E 19:11:53 10° NNE
ARIANE 5 R/B 4.3 19:05:10 10° W 19:09:25 87° S 19:45:18 10° E
ARIANE 5 R/B 4.3 19:05:10 10° W 19:09:26 87° S 19:45:14 10° E
GPS 2-05 Rocket1 3.9 19:10:28 10° SSW 19:13:08 23° SE 19:15:48 10° E
Cosmos 1437 Rocket 4.3 19:14:31 10° NNW 19:18:21 40° W 19:22:11 10° SSW
FENGYUN 3A 3.7 19:13:42 10° SSE 19:19:04 88° W 19:24:25 10° NNW
Cosmos 371 Rocket 3.5 19:16:19 10° S 19:20:58 46° ESE 19:25:34 10° NNE
Abrixas rocket 3.1 19:18:23 10° SW 19:21:30 50° NW 19:24:36 10° NNE
ARIANE 5 R/B 3.3 19:18:45 10° WSW 19:22:32 46° S 19:26:48 13° E
USA 238 DEB 3.7 19:17:03 10° SSW 19:23:56 88° ESE 19:30:47 10° NNE
USA 238 3.7 19:17:11 10° SSW 19:24:03 87° ESE 19:30:53 10° NNE
Thor Agena Rocket 4.2 19:21:46 10° NE 19:26:18 31° ESE 19:30:48 10° SSE
Skynet4D Del rocket 4.0 19:19:41 10° WSW 19:26:46 79° SSE 19:32:52 10° ENE
SPOT 3 Rocket 4.1 19:27:13 10° SE 19:31:54 36° ENE 19:36:33 10° NNE
Cosmos 2123 Rocket 4.0 19:28:11 10° N 19:34:13 59° E 19:40:16 10° SSE
Cosmos 332 Rocket 3.7 19:29:43 10° S 19:34:29 76° ESE 19:39:15 10° NNE
COSMOS 2487 4.2 19:38:13 17° ENE 19:38:13 17° ENE 19:39:30 10° NE
Ariane Rocket 4.4 19:33:25 10° S 19:38:06 39° WSW 19:42:45 10° NW
YAOGAN 1 3.7 19:35:31 10° S 19:39:39 44° WSW 19:43:45 10° NNW
MOS 1 4.3 19:34:23 10° SSE 19:40:02 67° ENE 19:45:37 10° N
IRS-1A Rocket 4.4 19:34:34 10° S 19:40:06 76° WSW 19:45:34 10° NNW
Delta 198 3.7 19:36:59 10° NW 19:40:44 44° NNE 19:42:30 24° E
Iridium 96 4.3 19:44:01 38° E 19:44:07 38° E 19:46:52 10° NNE
FREGAT/IRIS 3.9 19:45:11 23° ENE 19:45:11 23° ENE 19:47:05 10° NNE
Cosmos 1802 Rocket 4.2 19:46:28 10° SSE 19:52:24 48° E 19:58:23 10° NNE
Sich 1 Rocket 3.6 19:53:59 10° N 19:58:17 57° E 20:00:03 32° SSE
NOSS 3-2 (A) 3.2 19:53:04 10° SSW 19:58:48 86° WNW 20:04:31 10° NNE
DNEPR-1 R/B 4.0 19:57:17 10° SSW 20:01:40 60° WNW 20:05:45 10° NNE
NOSS 3-2 (C) 3.1 19:56:14 10° SSW 20:01:55 62° ESE 20:07:35 10° NNE
BREEZE-M DEB (TANK) 3.5 20:01:54 10° N 20:03:26 29° NNE 20:03:26 29° NNE
Cosmos 1908 Rocket 3.9 20:01:45 10° NNW 20:06:07 65° W 20:09:56 13° S
Lacrosse 4 Rocket 3.2 20:03:01 10° NNE 20:05:14 20° NE 20:05:14 20° NE
Cosmos 1447 Rocket 4.5 20:04:33 10° N 20:10:46 62° E 20:14:10 28° SSE
Spelda 30 4.0 20:07:34 10° W 20:11:08 80° N 20:18:11 24° E
Ariane V96 H10-3 2.9 20:05:01 10° W 20:12:19 57° SSW 20:12:32 56° S
Aureole 3 3.3 20:08:22 10° N 20:12:26 70° W 20:13:14 49° SSW
Cosmos 389 Rocket 4.4 20:10:16 10° NNW 20:13:28 30° W 20:16:37 10° SSW
FengYun 1-2 T 4.4 20:10:57 14° S 20:15:53 74° WSW 20:21:30 10° NNW
BLOCK DM-SL R/B 3.9 20:02:15 10° W 20:16:17 87° S 20:18:20 42° E
Cosmos 304 Rocket 3.6 20:23:09 68° SSE 20:23:41 78° ESE 20:28:28 10° NNE
Cosmos 1812 3.6 20:28:12 40° SW 20:29:01 47° W 20:32:42 10° NNW
Cosmos 1864 Rocket 4.4 20:31:36 63° ESE 20:32:09 65° E 20:38:14 10° NNE
Cosmos 1867 3.8 20:28:01 10° N 20:32:35 52° NE 20:32:35 52° NE
Cosmos 1271 Rocket 4.1 20:34:17 10° NNW 20:36:47 36° NNW 20:36:47 36° NNW
Timation 2 Rocket 3.7 20:32:06 10° SSW 20:38:12 79° ESE 20:44:09 10° NNE
Centaur AC-129 4.3 20:40:15 10° WNW 20:45:36 72° SSW 20:46:29 63° SSE
Envisat 3.3 20:46:19 64° W 20:46:19 64° W 20:51:14 10° NNW
ATLAS 2A CENTAUR R/B 4.1 20:42:14 10° WNW 20:51:52 29° SW 20:52:25 28° SW
BLOCK DM-SL R/B 4.5 20:15:01 10° W 21:00:34 88° N 21:02:10 65° E
Centaur D-1A AC-35 4.5 21:01:53 10° WSW 21:21:45 40° NW 21:23:40 33° N
Centaur AC-72 4.3 21:17:25 10° W 21:23:54 52° N 21:49:17 10° ENE
